Flag for Germany Weather past 2 weeks in Neu-Ulm, Bavaria, Germany

Now
28 °F

Passing clouds.


Feels Like: 22 °F
Forecast: 30 / 39 °F
Wind: 6 mph from Southwest

Location: Laupheim Airport

Current Time: Jan 28, 2015 at 7:44:04 AM

Latest Report: Jan 28, 2015 at 6:20 AM


Visibility: 5 mi

Pressure: 30.09 "Hg

Humidity: 93%

Dew point: 27 °F

Location of Neu-UlmLocation

Historic Weather in Neu-Ulm — Graph

°F

Neu-Ulm temperature yesterday

Maximum temperature yesterday: 34 °F (at 4:20 AM)
Minimum temperature yesterday: 30 °F (at 8:20 AM)
Average temperature yesterday: 33 °F

Past Weeks' High & Low Weather Summary

 TemperatureHumidityPressure
High52 °F (Jan 13, 2:20 PM)100% (Jan 15, 1:20 AM)30.36 "Hg (Jan 15, 1:20 AM)
Low28 °F (Jan 18, 9:20 AM)32% (Jan 13, 1:20 PM)29.65 "Hg (Jan 16, 4:20 PM)
Average33 °F90%29.98 "Hg
* Reported Jan 13 6:20 AM — Jan 28 6:20 AM, Neu-Ulm, Weather by CustomWeather, © 2014

Note: Actual official high and low records may vary slightly from our data, if they occured in-between our weather recording intervals... More about our weather records

Advertising

Neu-Ulm weather history for previous 24 hours

 ConditionsComfort  
Time TempWeatherWind HumidityBarometerVisibility
6:20 AM
Jan 28
28 °FPassing clouds.6 mph93%30.09 "Hg5 mi
5:20 AM30 °FLight snow. Partly cloudy.6 mph93%30.12 "Hg5 mi
4:20 AM30 °FLight snow. Partly cloudy.6 mph93%30.12 "HgN/A
3:20 AM30 °FLight snow. Partly cloudy.7 mph100%30.15 "Hg4 mi
2:20 AM30 °FLight snow. Ice fog.7 mph100%30.15 "Hg3 mi
1:20 AM32 °FLight snow. Passing clouds.7 mph93%30.15 "Hg4 mi
12:20 AM32 °FLight snow. Passing clouds.7 mph93%30.15 "Hg4 mi
11:20 PM
Jan 27
32 °FLight snow. Ice fog.7 mph93%30.15 "Hg3 mi
10:20 PM32 °FLight snow. Partly cloudy.7 mph93%30.15 "Hg4 mi
9:20 PM32 °FLight snow. Ice fog.9 mph93%30.15 "Hg3 mi
8:45 PM32 °FSnow. Ice fog.7 mph93%30.15 "Hg1 mi
8:20 PM32 °FLight snow. Ice fog.7 mph93%30.15 "Hg2 mi
7:45 PM32 °FLight snow. Ice fog.9 mph93%30.15 "Hg2 mi
7:20 PM32 °FSnow. Ice fog.9 mph93%30.15 "Hg1 mi
7:00 PM32 °FSnow. Ice fog.8 mph93%30.15 "Hg2 mi
6:20 PM32 °FSnow flurries. Ice fog.9 mph93%30.15 "Hg2 mi
5:20 PM32 °FSnow showers. Partly cloudy.13 mph93%30.15 "Hg1 mi
4:57 PM34 °FSnow showers. Partly sunny.13 mph81%30.12 "Hg2 mi
4:20 PM34 °FSnow flurries. Partly sunny.14 mph75%30.12 "Hg6 mi
3:20 PM34 °FPartly sunny.12 mph75%30.12 "HgN/A
2:20 PM34 °FScattered showers. Broken clouds.12 mph81%30.12 "HgN/A
1:49 PM34 °FSnow flurries. Broken clouds.13 mph81%30.12 "HgN/A
1:20 PM34 °FBroken clouds.9 mph81%30.15 "HgN/A
12:20 PM34 °FBroken clouds.9 mph87%30.15 "HgN/A
11:49 AM34 °FSnow flurries. Partly sunny.9 mph87%30.15 "Hg3 mi
11:20 AM34 °FBroken clouds.7 mph81%30.15 "HgN/A
11:03 AM34 °FSnow flurries. Broken clouds.7 mph87%30.15 "HgN/A
10:46 AM34 °FSnow showers. Partly sunny.6 mph81%30.15 "Hg2 mi
10:20 AM34 °FSnow flurries. Partly sunny.8 mph87%30.15 "Hg4 mi
9:20 AM30 °FSnow flurries. Partly sunny.5 mph93%30.15 "Hg4 mi
8:55 AM30 °FSnow flurries. Partly sunny.6 mph100%30.12 "Hg5 mi
8:20 AM30 °FScattered clouds.7 mph93%30.12 "HgN/A
7:20 AM32 °FPassing clouds.5 mph87%30.12 "HgN/A
Weather by CustomWeather, © 2014

See weather overviewHow to use our weather pages